Maple Lake, MN

12:24 PM CDT on April 25, 2018 (GMT -0500)
Maple Lake Municipal

Weather History for KMGG - March, 2014

Change the Weather History Date:

Sunday, March 2, 2014

  Actual Average (KSTC) Record (KSTC)
Temperature  
Mean Temperature -7 °F -  
Max Temperature 2 °F 29 °F 53 °F (1934)
Min Temperature -16 °F 12 °F -24 °F (1913)
Degree Days  
Heating Degree Days 72    
Moisture  
Dew Point -17 °F    
Average Humidity 61    
Maximum Humidity 75    
Minimum Humidity 47    
Precipitation  
Precipitation 0.00 in - - ()
Sea Level Pressure  
Sea Level Pressure 30.52 in    
Wind  
Wind Speed 7 mph (WNW)    
Max Wind Speed 14 mph    
Max Gust Speed 21 mph    
Visibility 10 miles    
Events      
Averages and records for this station are not official NWS values.
T = Trace of Precipitation, MM = Missing Value Source: NWS Daily Summary

Daily Weather History Graph

Daily Weather History Graph

Search for Another Location

Airport or City:

Astronomy

Mar. 02, 2014 Rise Set
Actual Time 6:52 AM CST 6:04 PM CST
Civil Twilight 6:22 AM CST 6:34 PM CST
Nautical Twilight 5:48 AM CST 7:08 PM CST
Astronomical Twilight 5:14 AM CST 7:42 PM CST
Moon 7:18 AM CST (3/2) 8:08 PM CST (3/2)
Length of Visible Light 12h 11m
Length of Day
11h 12m
Waxing Crescent, 3% of the Moon is Illuminated
Mar 2
Waxing Crescent
Mar 8
First Quarter
Mar 16
Full
Mar 23
Last Quarter
Mar 30
New

Hourly Weather History & Observations

Time (CST) Temp. Windchill Dew Point Humidity Pressure Visibility Wind Dir Wind Speed Gust Speed Precip Events Conditions
12:17 AM -10.8 °F -30.7 °F -21.3 °F 60% 30.53 in 10.0 mi NNW 11.5 mph 17.3 mph N/A   Clear
12:37 AM -11.6 °F -28.3 °F -22.4 °F 59% 30.54 in 10.0 mi NW 8.1 mph - N/A   Clear
12:57 AM -12.1 °F -27.5 °F -22.7 °F 59% 30.54 in 10.0 mi NW 6.9 mph - N/A   Clear
1:17 AM -12.6 °F -24.6 °F -23.6 °F 58% 30.54 in 10.0 mi NW 4.6 mph - N/A   Clear
1:36 AM -13.0 °F -27.0 °F -23.8 °F 59% 30.54 in 10.0 mi NW 5.8 mph - N/A   Clear
1:57 AM -13.7 °F - -24.3 °F 59% 30.54 in 10.0 mi Calm Calm - N/A   Clear
2:17 AM -13.5 °F -25.7 °F -24.3 °F 59% 30.54 in 10.0 mi NW 4.6 mph - N/A   Clear
2:36 AM -13.5 °F -25.7 °F -24.5 °F 58% 30.55 in 10.0 mi WNW 4.6 mph - N/A   Clear
2:57 AM -13.9 °F -29.7 °F -24.7 °F 58% 30.54 in 10.0 mi WNW 6.9 mph - N/A   Clear
3:16 AM -13.4 °F -25.5 °F -24.7 °F 57% 30.54 in 10.0 mi West 4.6 mph - N/A   Clear
3:36 AM -13.0 °F -22.7 °F -23.8 °F 59% 30.53 in 10.0 mi WNW 3.5 mph - N/A   Clear
3:57 AM -13.0 °F -25.1 °F -23.1 °F 61% 30.52 in 10.0 mi WNW 4.6 mph - N/A   Clear
4:17 AM -13.4 °F - -23.3 °F 61% 30.53 in 10.0 mi Calm Calm - N/A   Clear
4:36 AM -14.3 °F -24.1 °F -23.6 °F 63% 30.53 in 10.0 mi West 3.5 mph - N/A   Clear
4:56 AM -14.8 °F -24.8 °F -23.4 °F 65% 30.54 in 10.0 mi WNW 3.5 mph - N/A   Clear
5:17 AM -14.6 °F -24.5 °F -22.9 °F 66% 30.54 in 10.0 mi WNW 3.5 mph - N/A   Clear
5:37 AM -15.5 °F -25.6 °F -23.4 °F 67% 30.54 in 10.0 mi West 3.5 mph - N/A   Clear
5:56 AM -16.1 °F -26.2 °F -23.4 °F 69% 30.54 in 10.0 mi West 3.5 mph - N/A   Clear
6:17 AM -14.8 °F -27.2 °F -22.2 °F 69% 30.54 in 10.0 mi West 4.6 mph - N/A   Clear
6:37 AM -15.3 °F -27.8 °F -22.9 °F 69% 30.54 in 10.0 mi West 4.6 mph - N/A   Clear
6:57 AM -15.5 °F -28.0 °F -22.7 °F 70% 30.54 in 10.0 mi West 4.6 mph - N/A   Clear
7:17 AM -15.7 °F -30.2 °F -23.1 °F 69% 30.54 in 10.0 mi WNW 5.8 mph - N/A   Clear
7:36 AM -14.8 °F -33.5 °F -22.9 °F 67% 30.55 in 10.0 mi WNW 9.2 mph - N/A   Clear
7:57 AM -13.5 °F -27.6 °F -22.4 °F 65% 30.54 in 10.0 mi WNW 5.8 mph - N/A   Clear
8:17 AM -12.6 °F -29.6 °F -22.0 °F 63% 30.55 in 10.0 mi West 8.1 mph - N/A   Clear
8:36 AM -11.9 °F -28.7 °F -21.5 °F 63% 30.55 in 10.0 mi West 8.1 mph - N/A   Clear
8:57 AM -11.0 °F -27.6 °F -20.7 °F 62% 30.54 in 10.0 mi WNW 8.1 mph - N/A   Clear
9:17 AM -9.6 °F -27.0 °F -20.2 °F 60% 30.54 in 10.0 mi WNW 9.2 mph - N/A   Clear
9:36 AM -8.5 °F -27.8 °F -19.3 °F 59% 30.53 in 10.0 mi NW 11.5 mph - N/A   Clear
9:56 AM -7.8 °F -27.7 °F -19.1 °F 58% 30.53 in 10.0 mi NW 12.7 mph 20.7 mph N/A   Clear
10:17 AM -6.7 °F -27.2 °F -18.4 °F 57% 30.53 in 10.0 mi NW 13.8 mph 18.4 mph N/A   Clear
10:37 AM -5.8 °F -24.4 °F -17.7 °F 57% 30.53 in 10.0 mi WNW 11.5 mph - N/A   Clear
10:56 AM -4.9 °F -21.3 °F -17.1 °F 56% 30.53 in 10.0 mi WNW 9.2 mph - N/A   Clear
11:17 AM -4.0 °F -21.2 °F -17.3 °F 53% 30.53 in 10.0 mi NW 10.4 mph - N/A   Clear
11:37 AM -3.3 °F -16.9 °F -16.8 °F 53% 30.53 in 10.0 mi WNW 6.9 mph - N/A   Clear
11:56 AM -2.2 °F -12.5 °F -16.1 °F 52% 30.54 in 10.0 mi West 4.6 mph - N/A   Clear
12:17 PM -1.3 °F -15.7 °F -15.7 °F 51% 30.53 in 10.0 mi West 8.1 mph - N/A   Clear
12:30 PM -0.4 °F -16.7 °F -15.5 °F 49% 30.53 in 10.0 mi West 10.4 mph - N/A   Clear
12:45 PM -0.4 °F -15.7 °F -14.8 °F 51% 30.53 in 10.0 mi West 9.2 mph - N/A   Clear
1:13 PM 0.9 °F -14.2 °F -15.2 °F 47% 30.53 in 10.0 mi West 9.2 mph - N/A   Clear
1:16 PM 1.0 °F -14.0 °F -15.0 °F 47% 30.52 in 10.0 mi West 9.2 mph - N/A   Clear
1:37 PM 1.8 °F -13.1 °F -13.9 °F 48% 30.52 in 10.0 mi West 9.2 mph - N/A   Clear
1:56 PM 1.4 °F -14.5 °F -13.9 °F 49% 30.50 in 10.0 mi West 10.4 mph - N/A   Clear
2:16 PM 2.1 °F -13.6 °F -12.5 °F 51% 30.49 in 10.0 mi West 10.4 mph - N/A   Clear
2:37 PM 1.9 °F -15.5 °F -12.8 °F 50% 30.49 in 10.0 mi WNW 12.7 mph 16.1 mph N/A   Clear
2:57 PM 1.4 °F -15.3 °F -12.1 °F 53% 30.49 in 10.0 mi WNW 11.5 mph - N/A   Clear
3:17 PM 1.9 °F -11.8 °F -11.4 °F 54% 30.49 in 10.0 mi West 8.1 mph - N/A   Clear
3:37 PM 2.3 °F -12.4 °F -10.7 °F 55% 30.49 in 10.0 mi WNW 9.2 mph - N/A   Clear
3:56 PM 2.3 °F -10.2 °F -10.5 °F 55% 30.49 in 10.0 mi WNW 6.9 mph - N/A   Clear
4:17 PM 2.7 °F -12.0 °F -10.1 °F 55% 30.49 in 10.0 mi WNW 9.2 mph - N/A   Clear
4:37 PM 2.7 °F -10.9 °F -9.8 °F 56% 30.50 in 10.0 mi West 8.1 mph - N/A   Clear
4:56 PM 2.3 °F -8.8 °F -9.6 °F 58% 30.49 in 10.0 mi West 5.8 mph - N/A   Clear
5:17 PM 1.9 °F -12.9 °F -9.8 °F 58% 30.49 in 10.0 mi West 9.2 mph - N/A   Clear
5:36 PM 1.4 °F -11.3 °F -9.8 °F 60% 30.49 in 10.0 mi West 6.9 mph - N/A   Clear
5:57 PM 0.3 °F -11.2 °F -9.8 °F 63% 30.49 in 10.0 mi West 5.8 mph - N/A   Clear
6:17 PM -0.8 °F -10.8 °F -10.1 °F 65% 30.48 in 10.0 mi West 4.6 mph - N/A   Clear
6:36 PM -1.3 °F -14.5 °F -10.3 °F 66% 30.48 in 10.0 mi West 6.9 mph - N/A   Clear
6:57 PM -2.2 °F -14.2 °F -10.8 °F 67% 30.48 in 10.0 mi WNW 5.8 mph - N/A   Clear
7:17 PM -2.6 °F -16.0 °F -11.2 °F 67% 30.48 in 10.0 mi West 6.9 mph - N/A   Clear
7:36 PM -3.1 °F -16.7 °F -11.2 °F 68% 30.49 in 10.0 mi West 6.9 mph - N/A   Clear
7:56 PM -3.3 °F -16.9 °F -11.4 °F 68% 30.48 in 10.0 mi West 6.9 mph - N/A   Clear
8:17 PM -4.2 °F -18.0 °F -12.1 °F 69% 30.48 in 10.0 mi WNW 6.9 mph - N/A   Clear
8:37 PM -4.9 °F -15.6 °F -12.8 °F 69% 30.49 in 10.0 mi WNW 4.6 mph - N/A   Clear
8:56 PM -5.3 °F -16.0 °F -13.0 °F 69% 30.49 in 10.0 mi WNW 4.6 mph - N/A   Clear
9:17 PM -5.4 °F -16.2 °F -13.2 °F 69% 30.49 in 10.0 mi WNW 4.6 mph - N/A   Clear
9:37 PM -6.2 °F -17.1 °F -13.7 °F 70% 30.49 in 10.0 mi WNW 4.6 mph - N/A   Clear
9:57 PM -6.3 °F -17.3 °F -13.5 °F 71% 30.50 in 10.0 mi NW 4.6 mph - N/A   Clear
10:16 PM -6.3 °F -19.1 °F -13.7 °F 70% 30.51 in 10.0 mi WNW 5.8 mph - N/A   Clear
10:37 PM -6.3 °F -17.3 °F -13.9 °F 70% 30.51 in 10.0 mi WNW 4.6 mph - N/A   Clear
10:57 PM -7.2 °F -18.3 °F -14.6 °F 70% 30.51 in 10.0 mi WNW 4.6 mph - N/A   Clear
11:16 PM -7.6 °F -18.8 °F -14.3 °F 73% 30.51 in 10.0 mi WNW 4.6 mph - N/A   Clear
11:37 PM -8.7 °F - -15.2 °F 73% 30.51 in 10.0 mi Calm Calm - N/A   Clear
11:56 PM -8.9 °F -18.0 °F -14.8 °F 75% 30.51 in 10.0 mi West 3.5 mph - N/A   Clear